QPF
0.00 0.01 0.07 0.02 0.01 0.00 0.00 0.00 0.00 0.00 0.00 0.00 0.00 0.00 0.00 0.00 0.00 0.00 0.00 0.00 0.00 0.00 0.00 0.00 0.00 0.00 0.00 0.00 0.00 0.00 0.00 0.00 0.00 0.00 0.00 0.00 0.00 0.00 0.01 0.01 0.00 0.00 0.00
0.00 0.00 0.04 0.03 0.01 0.00 0.00 0.00 0.00 0.00 0.00 0.00 0.00 0.00 0.00 0.00 0.00 0.00 0.00 0.00 0.00 0.00 0.00 0.00 0.00 0.00 0.00 0.00 0.00 0.00 0.00 0.00 0.00 0.00 0.00 0.00 0.00 0.00 0.02 0.07 0.00 0.00 0.00
0.00 0.00 0.02 0.03 0.01 0.00 0.00 0.00 0.00 0.00 0.00 0.00 0.00 0.00 0.00 0.00 0.01 0.00 0.00 0.00 0.00 0.00 0.00 0.00 0.00 0.00 0.00 0.00 0.00 0.00 0.00 0.00 0.01 0.00 0.00 0.00 0.00 0.00 0.00 0.01 0.00 0.00 0.00
0.00 0.01 0.00 0.01 0.00 0.00 0.00 0.00 0.00 0.00 0.00 0.00 0.00 0.00 0.00 0.00 0.00 0.00 0.01 0.00 0.00 0.00 0.00 0.00 0.00 0.00 0.00 0.00 0.00 0.00 0.02 0.05 0.05 0.01 0.00 0.00 0.00 0.00 0.00 0.00 0.00 0.00 0.01
0.00 0.00 0.00 0.00 0.00 0.00 0.00 0.00 0.00 0.00 0.00 0.00 0.00 0.00 0.00 0.00 0.00 0.00 0.01 0.00 0.00 0.00 0.00 0.00 0.00 0.00 0.00 0.00 0.00 0.00 0.01 0.00 0.00 0.01 0.00 0.00 0.00 0.00 0.00 0.00 0.01 0.00 0.01
0.00 0.00 0.00 0.00 0.00 0.00 0.00 0.00 0.00 0.00 0.00 0.00 0.00 0.00 0.00 0.00 0.00 0.00 0.00 0.00 0.00 0.00 0.00 0.00 0.00 0.00 0.00 0.00 0.01 0.03 0.02 0.01 0.00 0.00 0.00 0.00 0.00 0.00 0.00 0.02 0.02 0.00 0.01
0.00 0.00 0.00 0.00 0.00 0.00 0.00 0.00 0.00 0.00 0.00 0.00 0.00 0.00 0.00 0.00 0.00 0.00 0.00 0.00 0.00 0.00 0.00 0.00 0.00 0.00 0.00 0.00 0.00 0.00 0.01 0.04 0.01 0.00 0.00 0.00 0.00 0.01 0.01 0.00 0.00 0.00 0.00
0.00 0.00 0.00 0.00 0.00 0.00 0.00 0.00 0.00 0.00 0.00 0.00 0.00 0.00 0.00 0.00 0.00 0.00 0.00 0.00 0.00 0.00 0.00 0.00 0.00 0.00 0.00 0.00 0.00 0.01 0.03 0.01 0.00 0.00 0.00 0.00 0.00 0.00 0.00 0.00 0.00 0.01 0.01
0.00 0.00 0.00 0.00 0.00 0.00 0.00 0.00 0.00 0.00 0.00 0.00 0.00 0.00 0.00 0.00 0.00 0.00 0.00 0.00 0.00 0.00 0.00 0.00 0.00 0.00 0.02 0.02 0.01 0.00 0.01 0.01 0.00 0.00 0.00 0.00 0.00 0.00 0.00 0.00 0.01 0.01 0.00
0.00 0.00 0.00 0.00 0.00 0.00 0.00 0.00 0.00 0.00 0.00 0.00 0.00 0.00 0.00 0.00 0.00 0.00 0.00 0.00 0.00 0.00 0.00 0.00 0.00 0.00 0.02 0.04 0.01 0.03 0.03 0.01 0.00 0.00 0.00 0.00 0.00 0.00 0.00 0.00 0.00 0.00 0.00
0.00 0.00 0.00 0.00 0.00 0.00 0.00 0.00 0.00 0.00 0.00 0.00 0.00 0.00 0.00 0.00 0.00 0.00 0.00 0.00 0.00 0.00 0.00 0.00 0.00 0.00 0.02 0.06 0.04 0.03 0.00 0.01 0.01 0.00 0.01 0.00 0.00 0.00 0.00 0.00 0.00 0.00 0.00
0.00 0.00 0.00 0.00 0.00 0.00 0.00 0.00 0.00 0.00 0.00 0.00 0.00 0.00 0.00 0.00 0.00 0.00 0.00 0.04 0.04 0.01 0.00 0.01 0.00 0.00 0.00 0.04 0.03 0.02 0.00 0.00 0.00 0.00 0.00 0.00 0.00 0.00 0.00 0.00 0.00 0.00 0.01
0.00 0.00 0.00 0.00 0.00 0.00 0.00 0.00 0.00 0.00 0.00 0.00 0.00 0.02 0.00 0.00 0.00 0.01 0.00 0.03 0.02 0.00 0.00 0.00 0.02 0.02 0.02 0.04 0.05 0.01 0.00 0.00 0.00 0.00 0.00 0.00 0.00 0.00 0.00 0.00 0.00 0.00 0.00
0.00 0.00 0.00 0.00 0.00 0.00 0.00 0.00 0.00 0.00 0.00 0.00 0.00 0.03 0.01 0.01 0.06 0.02 0.08 0.06 0.06 0.00 0.00 0.00 0.00 0.00 0.01 0.00 0.01 0.00 0.00 0.00 0.00 0.00 0.00 0.00 0.00 0.00 0.00 0.00 0.00 0.00 0.00
0.00 0.00 0.00 0.00 0.00 0.00 0.00 0.00 0.00 0.00 0.00 0.00 0.00 0.02 0.02 0.00 0.02 0.05 0.06 0.03 0.00 0.00 0.00 0.00 0.01 0.00 0.00 0.00 0.00 0.01 0.00 0.00 0.00 0.00 0.00 0.00 0.00 0.00 0.00 0.00 0.00 0.00 0.00
0.00 0.00 0.00 0.00 0.00 0.00 0.00 0.00 0.00 0.00 0.00 0.00 0.00 0.00 0.00 0.00 0.03 0.08 0.09 0.02 0.00 0.00 0.00 0.00 0.00 0.00 0.01 0.01 0.01 0.00 0.00 0.00 0.00 0.00 0.00 0.00 0.00 0.00 0.00 0.00 0.00 0.00 0.00
0.00 0.00 0.00 0.00 0.00 0.00 0.00 0.00 0.00 0.00 0.00 0.00 0.00 0.00 0.00 0.01 0.03 0.03 0.06 0.01 0.00 0.01 0.02 0.01 0.01 0.01 0.00 0.00 0.00 0.00 0.00 0.00 0.00 0.00 0.00 0.00 0.00 0.00 0.00 0.00 0.00 0.01 0.00
0.00 0.00 0.00 0.00 0.00 0.00 0.00 0.00 0.00 0.00 0.00 0.00 0.00 0.00 0.00 0.00 0.01 0.02 0.02 0.00 0.00 0.00 0.00 0.02 0.02 0.01 0.00 0.00 0.00 0.00 0.00 0.00 0.00 0.00 0.00 0.00 0.00 0.00 0.00 0.02 0.00 0.00 0.00
0.00 0.00 0.00 0.00 0.00 0.00 0.00 0.00 0.00 0.00 0.00 0.00 0.00 0.00 0.00 0.00 0.01 0.02 0.02 0.00 0.00 0.01 0.00 0.01 0.01 0.00 0.00 0.00 0.00 0.00 0.00 0.00 0.00 0.00 0.00 0.00 0.00 0.00 0.00 0.02 0.02 0.00 0.00
0.00 0.00 0.00 0.00 0.00 0.00 0.00 0.00 0.00 0.00 0.00 0.00 0.00 0.00 0.00 0.00 0.01 0.00 0.01 0.00 0.00 0.00 0.00 0.00 0.00 0.00 0.00 0.00 0.00 0.00 0.00 0.00 0.00 0.00 0.00 0.00 0.00 0.00 0.00 0.00 0.00 0.00 0.02
0.00 0.00 0.00 0.00 0.00 0.00 0.00 0.00 0.00 0.00 0.00 0.00 0.00 0.00 0.00 0.00 0.00 0.00 0.00 0.00 0.00 0.00 0.00 0.01 0.00 0.00 0.00 0.00 0.00 0.00 0.00 0.00 0.00 0.00 0.00 0.00 0.00 0.00 0.00 0.00 0.00 0.00 0.01
0.00 0.00 0.00 0.00 0.00 0.00 0.00 0.00 0.00 0.00 0.00 0.00 0.00 0.00 0.00 0.00 0.00 0.00 0.00 0.00 0.01 0.00 0.00 0.00 0.00 0.00 0.00 0.00 0.00 0.00 0.00 0.00 0.00 0.00 0.00 0.00 0.00 0.00 0.00 0.00 0.00 0.00 0.00
0.00 0.00 0.00 0.00 0.00 0.00 0.00 0.00 0.00 0.00 0.00 0.00 0.00 0.00 0.00 0.00 0.00 0.00 0.00 0.00 0.00 0.00 0.00 0.01 0.00 0.00 0.00 0.00 0.00 0.00 0.00 0.00 0.00 0.00 0.00 0.00 0.00 0.00 0.00 0.00 0.00 0.00 0.00
0.00 0.00 0.00 0.00 0.00 0.00 0.00 0.00 0.00 0.00 0.00 0.00 0.00 0.00 0.00 0.00 0.00 0.00 0.00 0.00 0.00 0.00 0.00 0.00 0.00 0.00 0.00 0.00 0.00 0.00 0.00 0.00 0.00 0.00 0.00 0.00 0.00 0.00 0.00 0.00 0.00 0.00 0.00
0.00 0.00 0.00 0.00 0.00 0.00 0.00 0.00 0.00 0.00 0.00 0.00 0.00 0.00 0.00 0.00 0.00 0.00 0.00 0.00 0.00 0.00 0.00 0.00 0.00 0.00 0.00 0.00 0.00 0.00 0.00 0.00 0.00 0.00 0.00 0.00 0.00 0.00 0.00 0.00 0.00 0.00 0.00
0.00 0.00 0.00 0.00 0.00 0.00 0.00 0.00 0.00 0.00 0.00 0.00 0.00 0.00 0.00 0.00 0.00 0.00 0.00 0.00 0.00 0.00 0.00 0.00 0.00 0.00 0.00 0.00 0.00 0.00 0.00 0.00 0.00 0.00 0.00 0.00 0.00 0.00 0.00 0.00 0.00 0.00 0.00
MSLP
1015.60 1015.34 1015.13 1015.21 1015.40 1015.57 1015.58 1015.59 1015.78 1015.90 1016.06 1016.20 1016.33 1016.33 1016.34 1016.37 1016.50 1016.64 1016.71 1016.83 1017.04 1017.22 1017.35 1017.30 1017.33 1017.41 1017.58 1017.71 1017.73 1017.69 1017.70 1017.70 1017.77 1017.87 1018.03 1017.93 1017.88 1018.08 1018.21 1018.33 1018.60 1018.67 1018.71
1015.06 1015.28 1015.26 1015.31 1015.59 1015.78 1015.71 1015.86 1016.05 1016.12 1016.28 1016.46 1016.52 1016.51 1016.54 1016.60 1016.70 1016.81 1016.93 1017.08 1017.25 1017.43 1017.50 1017.47 1017.57 1017.65 1017.81 1017.97 1018.03 1018.03 1017.98 1017.96 1017.97 1018.02 1018.12 1018.28 1018.41 1018.35 1018.43 1018.63 1018.80 1018.86 1018.98
1015.06 1015.22 1015.35 1015.43 1015.74 1015.93 1015.95 1016.05 1016.18 1016.37 1016.52 1016.65 1016.77 1016.81 1016.87 1016.91 1017.01 1017.10 1017.22 1017.38 1017.54 1017.71 1017.74 1017.78 1017.80 1017.86 1018.01 1018.13 1018.21 1018.24 1018.32 1018.33 1018.29 1018.43 1018.50 1018.57 1018.61 1018.71 1018.85 1018.90 1019.00 1019.13 1019.29
1014.87 1015.24 1015.43 1015.51 1015.83 1016.06 1016.16 1016.25 1016.43 1016.59 1016.76 1016.92 1017.00 1017.13 1017.25 1017.33 1017.38 1017.42 1017.53 1017.68 1017.81 1017.94 1017.97 1018.01 1018.02 1018.09 1018.29 1018.31 1018.35 1018.45 1018.49 1018.60 1018.57 1018.68 1018.91 1019.01 1019.01 1019.09 1019.15 1019.22 1019.33 1019.46 1019.55
1015.02 1015.24 1015.47 1015.66 1015.93 1016.15 1016.31 1016.46 1016.67 1016.81 1017.03 1017.25 1017.29 1017.44 1017.57 1017.69 1017.77 1017.77 1017.82 1017.99 1018.10 1018.23 1018.29 1018.23 1018.15 1018.23 1018.38 1018.37 1018.43 1018.47 1018.51 1018.62 1018.72 1018.89 1019.00 1019.18 1019.31 1019.46 1019.56 1019.57 1019.62 1019.77 1019.95
1015.09 1015.40 1015.58 1015.80 1015.97 1016.23 1016.47 1016.67 1016.84 1016.97 1017.23 1017.44 1017.49 1017.59 1017.71 1017.82 1017.90 1017.98 1018.07 1018.13 1018.24 1018.41 1018.49 1018.41 1018.39 1018.41 1018.43 1018.60 1018.61 1018.76 1018.66 1018.73 1018.84 1018.97 1019.20 1019.37 1019.47 1019.49 1019.64 1019.84 1019.94 1020.04 1020.21
1015.30 1015.50 1015.70 1015.87 1016.06 1016.30 1016.60 1016.80 1016.95 1017.12 1017.38 1017.57 1017.69 1017.73 1017.81 1017.93 1018.05 1018.10 1018.17 1018.25 1018.40 1018.56 1018.61 1018.60 1018.51 1018.53 1018.60 1018.61 1018.81 1018.80 1018.76 1018.87 1019.23 1019.43 1019.58 1019.65 1019.75 1019.78 1019.93 1020.17 1020.17 1020.27 1020.39
1015.41 1015.64 1015.79 1016.06 1016.17 1016.41 1016.71 1016.98 1017.20 1017.42 1017.63 1017.80 1017.82 1017.90 1018.06 1018.06 1018.13 1018.21 1018.34 1018.44 1018.53 1018.52 1018.58 1018.63 1018.69 1018.69 1018.61 1018.71 1018.89 1019.05 1018.91 1018.80 1019.35 1019.68 1019.69 1019.76 1019.83 1019.95 1020.05 1020.27 1020.36 1020.47 1020.58
1015.55 1015.71 1016.06 1016.19 1016.35 1016.61 1016.97 1017.15 1017.36 1017.62 1017.79 1017.89 1018.07 1018.15 1018.30 1018.27 1018.39 1018.31 1018.41 1018.52 1018.56 1018.57 1018.66 1018.65 1018.69 1018.75 1018.88 1018.81 1018.99 1019.15 1019.07 1019.11 1019.54 1019.78 1019.80 1019.91 1019.93 1020.04 1020.24 1020.46 1020.61 1020.70 1020.83
1015.84 1015.96 1016.37 1016.41 1016.55 1016.93 1017.15 1017.29 1017.54 1017.75 1017.87 1018.09 1018.20 1018.24 1018.34 1018.54 1018.45 1018.35 1018.46 1018.52 1018.47 1018.43 1018.56 1018.70 1018.69 1018.78 1018.99 1019.07 1019.16 1019.10 1019.18 1019.35 1019.76 1019.96 1020.12 1020.17 1020.09 1020.19 1020.43 1020.62 1020.82 1020.93 1021.01
1016.23 1016.35 1016.49 1016.63 1016.86 1017.24 1017.39 1017.49 1017.63 1017.85 1017.93 1018.13 1018.24 1018.35 1018.51 1018.73 1018.55 1018.53 1018.62 1018.55 1018.55 1018.54 1018.59 1018.67 1018.77 1018.89 1019.13 1019.21 1019.21 1019.15 1019.61 1019.59 1019.83 1020.11 1020.25 1020.30 1020.29 1020.33 1020.57 1020.75 1020.97 1021.07 1021.10
1016.24 1016.55 1016.67 1016.73 1017.08 1017.33 1017.41 1017.67 1017.78 1017.98 1018.14 1018.27 1018.36 1018.44 1018.68 1018.74 1018.65 1018.59 1018.60 1018.61 1018.65 1018.63 1018.73 1018.59 1018.94 1018.92 1019.05 1019.47 1019.49 1019.41 1019.89 1020.01 1019.99 1020.12 1020.31 1020.44 1020.44 1020.53 1020.75 1021.01 1021.17 1021.22 1021.25
1015.78 1016.29 1016.61 1016.62 1017.06 1017.27 1017.44 1017.75 1017.85 1018.13 1018.13 1018.13 1018.26 1018.50 1018.65 1018.58 1018.45 1018.54 1018.75 1018.82 1018.97 1018.78 1018.89 1018.95 1019.04 1019.05 1019.01 1019.62 1019.67 1019.66 1019.99 1020.09 1020.21 1020.28 1020.41 1020.57 1020.62 1020.67 1020.88 1021.09 1021.27 1021.38 1021.43
1015.62 1015.95 1016.35 1016.47 1016.90 1017.14 1017.45 1017.65 1017.70 1017.94 1017.99 1018.12 1018.30 1018.67 1018.73 1018.65 1018.48 1018.61 1018.77 1018.97 1019.13 1019.17 1018.97 1018.95 1019.04 1018.98 1019.15 1019.27 1019.59 1019.61 1019.70 1019.89 1020.24 1020.35 1020.40 1020.51 1020.67 1020.89 1021.11 1021.34 1021.42 1021.46 1021.49
1015.41 1015.69 1016.03 1016.27 1016.71 1016.88 1017.31 1017.55 1017.61 1017.64 1017.83 1017.85 1018.22 1018.59 1018.47 1018.48 1018.61 1018.61 1018.78 1019.05 1019.19 1019.23 1019.14 1019.11 1019.05 1019.15 1019.07 1019.37 1019.37 1019.30 1019.71 1020.00 1020.29 1020.39 1020.47 1020.43 1020.61 1020.91 1021.21 1021.38 1021.43 1021.45 1021.60
1014.94 1015.35 1015.65 1016.06 1016.30 1016.60 1016.93 1017.38 1017.46 1017.46 1017.49 1017.60 1017.92 1018.28 1018.23 1018.23 1018.54 1018.57 1018.94 1019.04 1019.23 1019.25 1019.07 1019.14 1019.20 1018.99 1019.35 1019.39 1019.09 1019.23 1019.30 1019.75 1020.14 1020.31 1020.47 1020.57 1020.75 1021.00 1021.17 1021.32 1021.44 1021.59 1021.66
1014.39 1014.77 1015.34 1015.68 1015.98 1016.41 1016.75 1017.03 1017.05 1017.05 1017.20 1017.23 1017.55 1017.89 1018.18 1018.15 1018.32 1018.75 1018.91 1019.04 1019.05 1018.98 1018.95 1019.30 1019.41 1019.33 1019.27 1019.47 1019.26 1019.35 1019.41 1019.79 1020.11 1020.47 1020.62 1020.87 1020.92 1020.86 1021.00 1021.23 1021.36 1021.45 1021.51
1013.86 1014.37 1014.93 1015.32 1015.82 1016.11 1016.35 1016.58 1016.71 1016.65 1016.75 1016.93 1017.22 1017.54 1017.82 1018.01 1018.25 1018.79 1019.10 1018.93 1019.04 1019.11 1019.14 1019.47 1019.62 1019.52 1019.23 1019.26 1019.67 1019.70 1019.69 1020.01 1020.19 1020.39 1020.57 1020.68 1020.86 1020.82 1020.93 1021.09 1021.27 1021.43 1021.38
1013.20 1013.78 1014.47 1014.95 1015.47 1015.81 1015.81 1015.93 1016.21 1016.37 1016.83 1016.88 1016.90 1017.19 1017.49 1017.81 1018.18 1018.51 1018.79 1018.83 1018.99 1018.97 1018.93 1019.19 1019.42 1019.56 1019.45 1019.35 1019.43 1019.92 1019.91 1019.96 1020.00 1020.15 1020.53 1020.77 1020.97 1020.99 1021.07 1021.11 1021.29 1021.40 1021.43
1012.66 1013.13 1013.81 1014.49 1015.11 1015.39 1015.57 1015.81 1016.09 1016.47 1016.47 1016.87 1017.01 1017.14 1017.39 1017.69 1018.06 1018.37 1018.59 1018.62 1018.98 1019.13 1019.35 1019.49 1019.51 1019.57 1019.51 1019.56 1019.46 1019.94 1020.03 1020.05 1020.06 1020.21 1020.37 1020.63 1020.97 1021.05 1021.00 1021.10 1021.30 1021.31 1021.33
1012.27 1012.78 1013.30 1013.95 1014.58 1015.09 1015.61 1016.04 1016.35 1016.68 1016.68 1016.89 1017.09 1016.86 1017.27 1017.38 1017.65 1018.11 1018.35 1018.45 1018.89 1019.26 1019.29 1019.43 1019.67 1019.68 1019.73 1019.84 1020.15 1020.32 1020.29 1020.20 1020.15 1020.33 1020.41 1020.73 1020.84 1020.85 1020.91 1021.07 1021.15 1021.31 1021.31
1011.55 1012.10 1012.84 1013.31 1013.95 1014.52 1015.01 1015.43 1015.87 1016.28 1016.44 1016.51 1016.64 1016.73 1016.91 1017.24 1017.49 1017.83 1018.11 1018.49 1018.65 1018.99 1019.24 1019.36 1019.58 1019.81 1019.97 1019.93 1020.51 1021.03 1021.07 1020.69 1020.39 1020.70 1020.61 1020.75 1020.70 1020.71 1020.91 1020.90 1021.03 1021.24 1021.36
1010.62 1011.35 1012.05 1012.73 1013.35 1013.99 1014.54 1015.15 1015.70 1016.09 1016.37 1016.57 1016.64 1016.78 1016.81 1017.04 1017.35 1017.57 1017.81 1018.06 1018.39 1018.72 1019.08 1019.25 1019.36 1019.57 1019.91 1019.99 1020.02 1020.49 1021.29 1021.39 1021.21 1020.88 1021.09 1020.89 1020.79 1020.84 1020.75 1020.74 1020.82 1020.97 1021.09
1009.42 1010.58 1011.35 1012.11 1012.74 1013.43 1014.11 1014.68 1015.21 1015.49 1015.94 1016.12 1016.15 1016.46 1016.71 1016.76 1017.11 1017.38 1017.51 1017.79 1018.17 1018.50 1018.86 1018.89 1019.11 1019.43 1019.79 1020.20 1020.20 1020.20 1020.37 1020.66 1021.29 1021.69 1021.20 1020.87 1020.85 1020.75 1020.61 1020.55 1020.59 1020.58 1020.73
1008.48 1009.67 1010.63 1011.39 1012.02 1012.69 1013.41 1013.87 1014.59 1015.18 1015.47 1015.68 1015.95 1016.20 1016.51 1016.65 1016.71 1016.99 1017.15 1017.48 1017.78 1018.10 1018.31 1018.58 1018.91 1019.37 1019.67 1020.02 1020.24 1020.46 1020.61 1020.61 1020.75 1021.34 1021.67 1021.35 1020.86 1020.58 1020.48 1020.22 1020.21 1020.44 1020.53
1007.88 1008.86 1009.93 1010.80 1011.32 1011.91 1012.60 1013.17 1013.86 1014.52 1015.07 1015.63 1015.87 1016.08 1016.19 1016.36 1016.55 1016.55 1016.71 1017.04 1017.24 1017.52 1017.97 1018.27 1018.63 1019.06 1019.44 1019.71 1019.82 1020.13 1020.25 1020.45 1020.70 1020.94 1021.31 1021.09 1020.83 1020.68 1020.45 1020.27 1020.27 1020.25 1020.33
Thickness
5761 5763 5764 5763 5762 5760 5761 5762 5761 5760 5760 5759 5759 5759 5760 5760 5759 5757 5757 5756 5754 5752 5751 5751 5751 5750 5747 5746 5745 5744 5744 5745 5745 5746 5746 5749 5751 5750 5748 5748 5745 5745 5744
5767 5764 5764 5764 5761 5760 5762 5762 5761 5761 5761 5759 5760 5760 5760 5760 5759 5758 5757 5755 5753 5751 5751 5752 5751 5749 5747 5745 5743 5743 5743 5744 5744 5745 5747 5748 5748 5749 5749 5747 5746 5745 5744
5768 5766 5765 5764 5762 5761 5763 5762 5762 5761 5761 5760 5760 5760 5760 5759 5758 5757 5756 5754 5752 5750 5749 5750 5749 5748 5747 5745 5744 5742 5741 5741 5742 5742 5744 5746 5747 5747 5746 5747 5746 5745 5743
5770 5767 5766 5765 5763 5762 5763 5763 5762 5762 5761 5760 5760 5759 5758 5757 5757 5757 5755 5753 5751 5749 5749 5749 5748 5745 5743 5743 5743 5742 5740 5740 5741 5741 5741 5742 5744 5744 5744 5744 5744 5742 5741
5771 5769 5767 5766 5764 5763 5763 5763 5763 5762 5761 5759 5759 5758 5757 5756 5756 5756 5754 5752 5750 5748 5747 5748 5748 5744 5742 5743 5743 5743 5743 5742 5741 5742 5743 5743 5742 5740 5741 5742 5742 5740 5738
5772 5769 5767 5766 5766 5764 5763 5763 5763 5763 5762 5760 5760 5759 5758 5757 5756 5755 5753 5752 5751 5748 5746 5747 5745 5741 5739 5739 5742 5742 5744 5744 5743 5744 5743 5742 5742 5741 5740 5739 5738 5737 5735
5772 5770 5768 5767 5766 5765 5765 5765 5765 5764 5763 5761 5760 5760 5759 5758 5757 5756 5756 5755 5752 5748 5748 5747 5745 5741 5738 5740 5742 5744 5745 5745 5744 5743 5742 5741 5740 5740 5738 5736 5737 5735 5734
5772 5770 5769 5767 5767 5767 5766 5765 5764 5763 5762 5761 5762 5761 5758 5759 5759 5758 5757 5755 5753 5752 5750 5748 5746 5743 5742 5743 5744 5744 5746 5748 5743 5742 5744 5743 5741 5740 5739 5736 5736 5735 5733
5770 5771 5768 5767 5768 5767 5765 5765 5765 5763 5763 5762 5761 5761 5759 5760 5759 5761 5758 5756 5755 5754 5752 5752 5751 5747 5744 5745 5744 5745 5746 5746 5745 5744 5743 5743 5742 5740 5738 5735 5734 5733 5732
5770 5770 5768 5769 5769 5767 5766 5766 5764 5763 5764 5762 5761 5763 5763 5760 5762 5764 5763 5760 5759 5759 5756 5755 5754 5751 5748 5746 5746 5748 5749 5748 5744 5743 5743 5741 5741 5739 5737 5735 5732 5732 5731
5768 5769 5768 5769 5769 5767 5766 5766 5765 5763 5764 5763 5763 5763 5762 5761 5765 5766 5765 5762 5760 5759 5758 5756 5756 5754 5750 5748 5747 5748 5747 5748 5746 5743 5742 5740 5739 5738 5736 5734 5731 5731 5731
5766 5767 5770 5770 5769 5768 5767 5766 5766 5765 5765 5765 5765 5766 5764 5765 5767 5768 5767 5764 5762 5761 5759 5759 5756 5755 5752 5750 5748 5748 5746 5745 5745 5744 5741 5740 5738 5737 5734 5732 5730 5730 5729
5771 5770 5771 5773 5771 5770 5769 5768 5768 5768 5770 5770 5770 5770 5768 5770 5772 5772 5768 5765 5760 5761 5762 5761 5759 5758 5756 5749 5748 5747 5746 5747 5745 5744 5740 5739 5737 5737 5735 5733 5731 5730 5730
5772 5774 5774 5775 5773 5773 5772 5771 5772 5772 5773 5773 5773 5771 5770 5772 5774 5774 5772 5766 5763 5762 5764 5763 5762 5761 5757 5755 5750 5748 5751 5750 5747 5745 5743 5740 5738 5736 5734 5731 5731 5730 5730
5774 5776 5777 5777 5776 5776 5775 5774 5776 5778 5776 5777 5776 5773 5774 5776 5776 5776 5774 5768 5764 5763 5763 5763 5764 5761 5759 5754 5753 5754 5751 5748 5746 5746 5744 5743 5740 5736 5734 5733 5733 5732 5730
5779 5779 5781 5781 5779 5778 5778 5777 5779 5781 5781 5782 5780 5777 5777 5778 5777 5778 5774 5769 5766 5765 5765 5764 5762 5760 5756 5755 5756 5755 5755 5753 5750 5748 5745 5743 5741 5738 5737 5736 5734 5732 5731
5783 5785 5782 5784 5783 5782 5783 5780 5782 5783 5783 5785 5784 5782 5780 5781 5779 5776 5772 5769 5768 5770 5768 5764 5759 5758 5758 5755 5756 5755 5756 5753 5751 5747 5745 5743 5741 5741 5740 5738 5736 5735 5733
5787 5786 5786 5788 5786 5786 5787 5786 5786 5787 5789 5790 5789 5788 5784 5782 5782 5777 5772 5771 5771 5769 5768 5765 5763 5761 5762 5760 5756 5756 5754 5751 5750 5749 5748 5746 5745 5744 5742 5741 5739 5737 5737
5791 5791 5788 5790 5788 5788 5792 5792 5791 5790 5790 5790 5792 5790 5788 5786 5782 5779 5775 5774 5771 5770 5770 5768 5766 5766 5764 5761 5760 5755 5755 5755 5754 5752 5749 5747 5746 5744 5743 5742 5739 5738 5738
5795 5795 5793 5793 5791 5792 5794 5795 5794 5792 5792 5790 5790 5791 5789 5786 5784 5782 5781 5780 5775 5772 5770 5769 5767 5767 5767 5762 5763 5758 5757 5757 5756 5756 5754 5749 5747 5745 5746 5745 5742 5742 5741
5795 5797 5796 5795 5795 5794 5792 5791 5790 5788 5791 5791 5790 5793 5791 5789 5787 5785 5783 5782 5777 5774 5773 5771 5769 5767 5765 5764 5760 5757 5757 5758 5759 5758 5756 5752 5750 5749 5748 5747 5745 5743 5743
5797 5800 5799 5798 5798 5797 5798 5797 5796 5793 5794 5795 5795 5795 5795 5792 5789 5788 5786 5784 5782 5779 5776 5774 5772 5768 5766 5766 5757 5749 5743 5752 5758 5757 5758 5756 5754 5753 5750 5751 5749 5745 5744
5803 5803 5803 5803 5801 5801 5801 5799 5798 5797 5796 5794 5795 5795 5796 5795 5792 5791 5790 5788 5785 5782 5779 5778 5777 5773 5766 5768 5767 5757 5743 5740 5747 5757 5754 5756 5756 5754 5754 5754 5753 5751 5748
5812 5808 5807 5806 5805 5804 5804 5802 5799 5799 5796 5798 5799 5799 5799 5798 5796 5794 5793 5791 5789 5786 5783 5783 5781 5775 5772 5765 5767 5768 5766 5760 5745 5742 5754 5757 5757 5757 5760 5759 5757 5755 5754
5819 5814 5812 5811 5811 5810 5808 5808 5803 5801 5804 5803 5802 5801 5800 5801 5800 5798 5797 5794 5793 5791 5790 5787 5783 5778 5775 5771 5769 5766 5765 5763 5762 5751 5742 5749 5759 5761 5762 5762 5761 5758 5756
5822 5820 5817 5812 5813 5815 5814 5812 5809 5806 5803 5802 5802 5802 5802 5803 5803 5802 5801 5798 5797 5796 5793 5789 5787 5784 5779 5777 5774 5770 5768 5764 5760 5757 5750 5752 5757 5759 5761 5761 5760 5760 5759